カタログに戻る

DEBUT

ORIZURU

運用中科学PO
NORAD 20479·PAYLOAD·🇯🇵 Japan

打ち上げ Feb 7, 1990 から Tanegashima Space Center

Loading…

次のパス (今後24時間)

TLE

最新Source: Space-Track

元期: Sep 14, 2026, 12:09 UTC

1 20479U 90013B   26257.50667486 -.00000045  00000-0 -20282-4 0  9998
2 20479  99.0643 169.0608 0537603 286.7571  67.5222 12.84042532715036

AllMySatでDEBUTをリアルタイム追跡

Download on the App Store